Date,TemperatureHighF,TemperatureAvgF,TemperatureLowF,DewpointHighF,DewpointAvgF,DewpointLowF,HumidityHigh,HumidityAvg,HumidityLow,PressureMaxIn,PressureMinIn,WindSpeedMaxMPH,WindSpeedAvgMPH,GustSpeedMaxMPH,PrecipitationSumIn
2013-2-1,64,45,29,22,16,13,54,34,18,30.25,30.13,7,1,7,0.00
2013-2-2,68,49,34,20,15,12,46,29,13,30.32,30.20,9,1,9,0.00
2013-2-3,65,52,38,33,20,13,41,29,18,30.25,29.97,10,1,10,0.00
2013-2-4,69,57,47,35,31,28,50,37,28,30.07,29.96,14,2,14,0.00
2013-2-5,69,53,38,31,27,23,61,39,23,30.08,29.95,6,1,6,0.00
2013-2-6,69,53,36,33,26,20,60,37,20,30.00,29.89,15,2,15,0.00
2013-2-7,68,56,45,33,27,18,54,35,23,30.11,29.99,8,2,8,0.00
2013-2-8,70,55,41,30,24,13,51,33,15,30.11,29.85,12,2,12,0.00
2013-2-9,63,50,41,24,18,8,43,29,13,29.95,29.74,27,8,27,0.00
2013-2-10,56,44,35,19,13,6,45,30,15,30.01,29.90,22,4,22,0.00
2013-2-11,62,45,27,28,12,4,54,28,16,30.00,29.86,16,3,16,0.00
2013-2-12,52,42,32,32,17,0,72,41,13,30.12,29.96,19,5,19,0.00
2013-2-13,56,42,26,15,9,5,43,28,16,30.16,30.02,13,2,13,0.00
2013-2-14,62,44,27,18,11,3,38,27,17,30.12,29.96,11,1,11,0.00
2013-2-15,58,46,37,29,22,12,59,40,29,30.30,30.11,8,2,8,0.00
2013-2-16,63,47,31,18,13,7,50,27,16,30.29,30.13,7,1,7,0.00
2013-2-17,69,51,27,15,9,4,38,21,7,30.13,29.82,25,5,25,0.00
2013-2-18,66,57,48,15,7,2,21,14,8,30.07,29.88,20,5,20,0.00
2013-2-19,60,49,39,45,20,4,86,39,16,30.04,29.90,14,2,14,0.37
2013-2-20,61,49,37,43,30,19,87,55,22,29.80,29.60,31,8,31,0.02
2013-2-21,53,42,33,25,22,19,62,47,30,29.96,29.76,34,8,34,0.00
2013-2-22,57,45,32,24,22,18,67,42,23,30.04,29.92,24,5,24,0.00
2013-2-23,60,48,34,23,18,11,43,31,18,30.08,29.78,17,3,17,0.00
2013-2-24,63,49,34,24,17,5,49,30,15,29.91,29.63,36,10,36,0.00
2013-2-25,54,43,33,17,12,7,50,29,17,30.07,29.90,16,4,16,0.00
2013-2-26,65,50,33,17,8,-2,40,20,6,30.05,29.81,22,5,22,0.00
2013-2-27,57,45,34,11,4,-3,31,19,11,30.24,30.04,11,2,11,0.00
2013-2-28,59,44,29,17,10,4,49,28,13,30.29,30.18,8,1,8,0.00